MOLNIYA 1-40

Last updated on Jan. 25, 2020, 4:43 a.m. UTC

1 10925U 78055A   20024.47124580  .00000870  00000-0  25917-2 0  9992
2 10925  62.4743 164.9913 7039138 277.8517  14.0390  2.00649789305130
UTC
Height (km)
Latitude
Longitude
Inclination
Orbital Period
UTC large
Height (km)
Speed (km/s)
/
Latitude / Longitude
Inclination (degrees)
Orbital Period (minutes)
Azimuth
Elevation
Range (km)
Doppler Factor
iOS Compass Heading
iOS Angle

Next 30 passes for location: Hong Kong

Rise time Rise Azimuth (degrees) Set time Set Azimuth (degrees) Duration Max altitude (degrees)

No matching passes for this satellites